This is the latest recevied weather packets stored in our database for station/object KG5WBN. If no packets are shown the sender has not sent any weather packets the latest 10 day(s).
| Time | Temp. | Humidity | Pressure | Rain* | Wind** | Luminosity | Snow |
|---|---|---|---|---|---|---|---|
| 1787934510 | 32.22° C | 48% | 1016.3 hPa | 0 mm | - | 310 W/m² | - |
| 1787934205 | 32.22° C | 50% | 1016.3 hPa | 0 mm | - | 260 W/m² | - |
| 1787933904 | 32.22° C | 50% | 1016.3 hPa | 0 mm | - | 303 W/m² | - |
| 1787933604 | 31.67° C | 50% | 1016.3 hPa | 0 mm | - | 300 W/m² | - |
| 1787933299 | 31.11° C | 50% | 1016.3 hPa | 0 mm | - | 295 W/m² | - |
| 1787932998 | 31.11° C | 51% | 1016.3 hPa | 0 mm | - | 294 W/m² | - |
| 1787932697 | 31.11° C | 51% | 1016.3 hPa | 0 mm | - | 292 W/m² | - |
| 1787932391 | 31.11° C | 50% | 1015.9 hPa | 0 mm | - | 290 W/m² | - |
| 1787932086 | 31.67° C | 50% | 1015.9 hPa | 0 mm | - | 285 W/m² | - |
| 1787931785 | 31.67° C | 50% | 1016.3 hPa | 0 mm | - | 276 W/m² | - |
| 1787931479 | 31.67° C | 50% | 1016.3 hPa | 0 mm | - | 265 W/m² | - |
| 1787931179 | 31.11° C | 51% | 1015.9 hPa | 0 mm | - | 261 W/m² | - |
| 1787930879 | 30.56° C | 51% | 1015.9 hPa | 0 mm | - | 252 W/m² | - |
| 1787930573 | 31.67° C | 50% | 1016.3 hPa | 0 mm | - | 246 W/m² | - |
| 1787930268 | 31.11° C | 52% | 1015.9 hPa | 0 mm | - | 234 W/m² | - |
| 1787929967 | 31.11° C | 50% | 1016.3 hPa | 0 mm | - | 222 W/m² | - |
| 1787929661 | 31.11° C | 51% | 1015.9 hPa | 0 mm | - | 210 W/m² | - |
| 1787929356 | 30° C | 52% | 1015.6 hPa | 0 mm | - | 206 W/m² | - |
| 1787929053 | 30.56° C | 51% | 1015.6 hPa | 0 mm | - | 200 W/m² | - |
| 1787928749 | 30° C | 52% | 1015.6 hPa | 0 mm | - | 190 W/m² | - |
| 1787928448 | 30° C | 52% | 1015.6 hPa | 0 mm | - | 182 W/m² | - |
| 1787928147 | 30.56° C | 52% | 1015.6 hPa | 0 mm | - | 173 W/m² | - |
| 1787927847 | 30.56° C | 52% | 1015.6 hPa | 0 mm | - | 102 W/m² | - |
| 1787927541 | 30° C | 53% | 1015.6 hPa | 0 mm | - | 153 W/m² | - |
| 1787927236 | 30° C | 63% | 1015.2 hPa | 0 mm | - | 141 W/m² | - |
* Rain latest hour (hover to see other rain measurements)
** Current wind speed in m/s (hover to see current wind gust speed)